Location: Rio Negrinho
(26.2394°S, 49.4999°W)
Time: 17:06:05
(UTC+00:00)

Hubble Space Telescope - Pass Details

Date: 24 July 2021
Orbit: 535 x 539 km, 28.5° (Epoch: 22 September)

Event Time Altitude Azimuth Distance (km) Brightness Sun altitude
Exits shadow 08:34:09 - 334° (NNW) 2,592 4.1 -19.5°
Reaches altitude 10° 08:37:17 10° 2° (N) 1,781 3.6 -18.8°
Maximum altitude 08:39:09 13° 29° (NNE) 1,615 3.7 -18.4°
Drops below altitude 10° 08:41:01 10° 56° (NE) 1,788 4.5 -18.0°
Sets 08:44:25 0° 85° (E) 2,685 6.0 -17.3°
